This is the latest recevied weather packets stored in our database for station/object EDXW. If no packets are shown the sender has not sent any weather packets the latest 1 day(s).
| Time | Temp. | Humidity | Pressure | Rain* | Wind** | Luminosity | Snow |
|---|---|---|---|---|---|---|---|
| 1778015402 | 10° C | 80% | 1012 hPa | 0 mm | 5.36 m/s, 20° | - | - |
| 1778011801 | 10° C | 80% | 1012 hPa | 0 mm | 5.36 m/s, 10° | - | - |
| 1778008212 | 10° C | 80% | 1011 hPa | 0 mm | 6.71 m/s, 360° | - | - |
| 1778004602 | 10° C | 80% | 1011 hPa | 0 mm | 7.6 m/s, 350° | - | - |
| 1778001002 | 10.56° C | 70% | 1011 hPa | 0 mm | 7.6 m/s, 350° | - | - |
| 1777997401 | 11.67° C | 70% | 1012 hPa | 0 mm | 7.6 m/s, 350° | - | - |
| 1777993802 | 11.67° C | 75% | 1012 hPa | 0 mm | 7.15 m/s, 340° | - | - |
| 1777990202 | 11.67° C | 75% | 1012 hPa | 0 mm | 6.71 m/s, 340° | - | - |
| 1777986602 | 11.67° C | 75% | 1012 hPa | 0 mm | 5.81 m/s, 340° | - | - |
| 1777983001 | 10.56° C | 80% | 1012 hPa | 0 mm | 4.47 m/s, 320° | - | - |
| 1777979402 | 10.56° C | 80% | 1012 hPa | 0 mm | 4.02 m/s, 330° | - | - |
| 1777975802 | 10.56° C | 75% | 1013 hPa | 0 mm | 3.58 m/s, 330° | - | - |
| 1777972201 | 10.56° C | 75% | 1013 hPa | 0 mm | 4.02 m/s, 350° | - | - |
| 1777968602 | 10.56° C | 80% | 1013 hPa | 0 mm | 3.13 m/s, 360° | - | - |
| 1777965002 | 10° C | 75% | 1013 hPa | 0 mm | 3.58 m/s, 10° | - | - |
| 1777961401 | 10° C | 75% | 1013 hPa | 0 mm | 3.58 m/s, 10° | - | - |
| 1777950602 | 6.67° C | 85% | 1013 hPa | 0 mm | 2.68 m/s, 360° | - | - |
| 1777947002 | 5.56° C | 90% | 1013 hPa | 0 mm | 2.24 m/s, 10° | - | - |
| 1777943402 | 6.67° C | 85% | 1013 hPa | 0 mm | 2.24 m/s, 350° | - | - |
| 1777939802 | 5.56° C | 90% | 1014 hPa | 0 mm | 2.68 m/s, 340° | - | - |
| 1777936202 | 5.56° C | 90% | 1014 hPa | 0 mm | 1.79 m/s, 350° | - | - |
* Rain latest 24 hours (hover to see other rain measurements)
** Current wind speed in m/s (hover to see current wind gust speed)